DW4393 Weather Reports


Display with metric or nautical units.
time (UTC)temp
F
wind
direction
speed
MPH
gust
MPH
rain 1hr
in
rain 24hr
in
rain mn
in
humidity
%
barometer
mb
20260508214803 67 247 0.0 0.0 0.00 0.00 0.00 79 1014.0
20260508214303 67 247 0.0 0.0 0.00 0.00 0.00 78 1013.8
20260508213803 67 247 0.0 0.0 0.00 0.00 0.00 77 1013.8
20260508211803 67 247 0.0 0.0 0.00 0.00 0.00 77 1013.9
20260508211303 67 247 0.0 0.0 0.00 0.00 0.00 75 1013.9
20260508210804 67 247 0.0 0.0 0.00 0.00 0.00 79 1013.8
20260508210303 67 247 0.0 2.0 0.00 0.00 0.00 74 1013.8
20260508204303 68 247 0.0 0.0 0.00 0.00 0.00 74 1013.9
20260508203803 68 247 0.0 0.0 0.00 0.00 0.00 72 1014.1
20260508203303 68 247 0.0 1.0 0.00 0.00 0.00 71 1014.0
20260508201303 69 247 0.0 0.0 0.00 0.00 0.00 70 1013.6
20260508200803 69 247 0.0 0.0 0.00 0.00 0.00 67 1013.8
20260508200303 69 247 0.0 2.0 0.00 0.00 0.00 67 1013.9
20260508194804 70 244 2.0 3.0 0.00 0.00 0.00 64 1014.2
20260508194303 70 182 1.0 2.0 0.00 0.00 0.00 63 1014.2
20260508193803 70 236 1.0 3.0 0.00 0.00 0.00 63 1014.2
20260508191803 70 269 0.0 2.0 0.00 0.00 0.00 62 1014.7
20260508191303 70 255 0.0 0.0 0.00 0.00 0.00 65 1014.8
20260508190803 70 255 1.0 3.0 0.00 0.00 0.00 62 1014.6
20260508190303 70 217 0.0 2.0 0.00 0.00 0.00 65 1014.8
20260508184803 70 200 1.0 3.0 0.00 0.00 0.00 62 1015.0
20260508184304 70 178 0.0 1.0 0.00 0.00 0.00 62 1015.0
20260508183303 70 245 1.0 2.0 0.00 0.00 0.00 59 1015.1
20260508181804 70 172 0.0 1.0 0.00 0.00 0.00 64 1015.4
20260508181303 70 191 1.0 2.0 0.00 0.00 0.00 61 1015.5
20260508180803 69 135 0.0 2.0 0.00 0.00 0.00 65 1015.5
20260508180303 69 309 0.0 3.0 0.00 0.00 0.00 62 1015.4
20260508174804 69 237 0.0 2.0 0.00 0.00 0.00 61 1015.6
20260508174303 68 183 0.0 2.0 0.00 0.00 0.00 62 1015.9
20260508173803 69 143 1.0 3.0 0.00 0.00 0.00 64 1016.0
20260508173303 69 246 0.0 2.0 0.00 0.00 0.00 63 1016.1
20260508171803 68 240 2.0 3.0 0.00 0.00 0.00 65 1016.5
20260508171303 67 235 1.0 2.0 0.00 0.00 0.00 72 1016.4
20260508170803 67 226 0.0 2.0 0.00 0.00 0.00 69 1016.4
20260508170303 68 226 1.0 2.0 0.00 0.00 0.00 66 1016.6
20260508164804 67 179 1.0 2.0 0.00 0.00 0.00 69 1017.0
20260508164303 66 220 0.0 1.0 0.00 0.00 0.00 74 1017.1
20260508163803 66 231 1.0 1.0 0.00 0.00 0.00 69 1017.1
20260508163303 66 223 1.0 3.0 0.00 0.00 0.00 69 1017.3
20260508161803 66 298 0.0 1.0 0.00 0.00 0.00 76 1017.4
20260508161303 66 298 0.0 1.0 0.00 0.00 0.00 76 1017.4
20260508160803 65 267 0.0 2.0 0.00 0.00 0.00 75 1017.5
20260508160304 65 215 0.0 2.0 0.00 0.00 0.00 76 1017.4
20260508154303 65 112 1.0 2.0 0.00 0.00 0.00 76 1017.8
20260508153803 64 227 1.0 3.0 0.00 0.00 0.00 75 1017.7
20260508153304 64 280 0.0 3.0 0.00 0.00 0.00 78 1017.9
20260508151804 63 208 0.0 2.0 0.00 0.00 0.00 79 1017.9
20260508151304 63 192 1.0 2.0 0.00 0.00 0.00 78 1017.9
20260508144804 61 239 0.0 1.0 0.00 0.01 0.00 80 1018.0
20260508144304 61 286 0.0 1.0 0.00 0.01 0.00 83 1018.0
20260508143803 60 286 0.0 1.0 0.00 0.01 0.00 81 1017.9
20260508143303 60 286 0.0 1.0 0.00 0.01 0.00 81 1017.9
20260508141803 60 286 0.0 1.0 0.00 0.03 0.00 84 1017.8
20260508141303 59 286 0.0 0.0 0.00 0.05 0.00 84 1017.9
20260508140804 59 286 0.0 0.0 0.00 0.06 0.00 85 1017.9
20260508134803 58 286 0.0 0.0 0.00 0.08 0.00 86 1018.1
20260508133803 58 306 0.0 0.0 0.00 0.08 0.00 87 1018.0
20260508133303 57 306 0.0 1.0 0.00 0.08 0.00 89 1018.1
20260508131804 57 306 0.0 0.0 0.00 0.08 0.00 92 1018.2
20260508131303 56 306 0.0 0.0 0.00 0.08 0.00 94 1018.1
20260508130804 56 306 0.0 1.0 0.00 0.08 0.00 94 1017.9
20260508124803 55 67 0.0 0.0 0.00 0.09 0.00 95 1017.8
20260508123303 54 67 0.0 0.0 0.00 0.12 0.00 95 1017.9
20260508121804 52 67 0.0 0.0 0.00 0.16 0.00 95 1017.8
20260508121303 52 67 0.0 0.0 0.00 0.16 0.00 95 1017.6
20260508120803 52 67 0.0 0.0 0.00 0.16 0.00 95 1017.5
20260508120303 52 67 0.0 0.0 0.00 0.16 0.00 95 1017.2
20260508114803 50 67 0.0 0.0 0.00 0.16 0.00 95 1016.7
20260508113304 50 67 0.0 0.0 0.00 0.16 0.00 95 1016.4
20260508111803 50 67 0.0 0.0 0.00 0.16 0.00 94 1016.1
20260508111303 50 67 0.0 0.0 0.00 0.16 0.00 94 1015.9
20260508110804 50 67 0.0 0.0 0.00 0.16 0.00 94 1015.8
20260508110304 50 67 0.0 0.0 0.00 0.16 0.00 94 1015.6
20260508104804 50 67 0.0 0.0 0.00 0.16 0.00 94 1015.5
20260508104303 50 67 0.0 0.0 0.00 0.16 0.00 94 1015.4
20260508103303 50 67 0.0 0.0 0.00 0.16 0.00 94 1015.3
20260508101804 50 67 0.0 0.0 0.00 0.17 0.00 94 1015.1
20260508101304 51 67 0.0 0.0 0.00 0.17 0.00 94 1015.1
20260508100803 51 67 0.0 0.0 0.00 0.19 0.00 94 1015.0
20260508100304 51 67 0.0 0.0 0.00 0.21 0.00 94 1015.0
20260508094804 51 67 0.0 0.0 0.00 0.24 0.00 94 1015.0
20260508094304 51 67 0.0 0.0 0.00 0.24 0.00 94 1014.9
20260508093803 51 67 0.0 0.0 0.00 0.25 0.00 94 1014.9
20260508093304 51 67 0.0 0.0 0.00 0.27 0.00 94 1014.7
20260508091804 52 67 0.0 0.0 0.00 0.31 0.00 94 1014.6
20260508091304 52 67 0.0 0.0 0.00 0.32 0.00 94 1014.6
20260508090804 52 67 0.0 0.0 0.00 0.32 0.00 94 1014.6
20260508090304 52 67 0.0 0.0 0.00 0.32 0.00 94 1014.6
20260508084803 52 67 0.0 0.0 0.00 0.32 0.00 94 1014.4
20260508084304 52 67 0.0 0.0 0.00 0.32 0.00 94 1014.3
20260508083804 52 67 0.0 0.0 0.00 0.33 0.00 94 1014.4
20260508083307 52 67 0.0 0.0 0.00 0.34 0.00 94 1014.5
20260508081804 52 67 0.0 0.0 0.00 0.35 0.00 94 1014.3
20260508080804 52 67 0.0 0.0 0.00 0.35 0.00 94 1014.3
20260508080304 52 67 0.0 0.0 0.00 0.35 0.00 94 1014.1
20260508074304 52 67 0.0 0.0 0.00 0.35 0.00 94 1014.2
20260508073804 53 67 0.0 0.0 0.00 0.35 0.00 94 1014.1
20260508073304 53 67 0.0 0.0 0.00 0.35 0.00 94 1014.1
20260508071804 53 67 0.0 0.0 0.00 0.35 0.00 94 1014.3
20260508071304 53 67 0.0 0.0 0.00 0.35 0.00 94 1014.4
20260508070304 53 67 0.0 0.0 0.00 0.35 0.00 94 1014.4
20260508064804 53 67 0.0 0.0 0.00 0.35 0.00 94 1014.3
20260508064304 53 67 0.0 0.0 0.00 0.36 0.00 94 1014.4
20260508063803 53 67 0.0 0.0 0.00 0.36 0.00 94 1014.5
20260508061803 54 67 0.0 0.0 0.00 0.38 0.00 94 1014.5
20260508061303 54 67 0.0 0.0 0.00 0.38 0.00 94 1014.6
20260508060802 54 67 0.0 0.0 0.00 0.39 0.00 94 1014.6
20260508060303 54 67 0.0 0.0 0.00 0.39 0.00 94 1014.5
20260508054803 54 67 0.0 0.0 0.00 0.40 0.00 93 1014.5
20260508054302 55 67 0.0 0.0 0.00 0.40 0.00 93 1014.4
20260508053803 55 67 0.0 0.0 0.00 0.41 0.00 93 1014.6
20260508053303 55 67 0.0 0.0 0.00 0.42 0.00 93 1014.5
20260508051803 55 67 0.0 0.0 0.00 0.53 0.00 93 1014.8
20260508051303 55 67 0.0 0.0 0.00 0.58 0.00 93 1014.8
20260508050803 55 67 0.0 0.0 0.00 0.63 0.00 93 1014.8
20260508050302 55 67 0.0 0.0 0.00 0.63 0.00 93 1014.7
20260508044803 55 67 0.0 0.0 0.00 0.63 0.00 93 1014.6
20260508044303 56 67 0.0 0.0 0.00 0.63 0.00 93 1014.4
20260508043802 56 67 0.0 0.0 0.00 0.63 0.00 93 1014.5
20260508043302 56 67 0.0 0.0 0.00 0.64 0.00 93 1014.4
20260508041803 56 67 0.0 0.0 0.00 0.64 0.00 92 1014.3
20260508041303 56 67 0.0 0.0 0.00 0.64 0.00 92 1014.6
20260508040821 56 67 0.0 0.0 0.00 0.64 0.00 92 1014.3
20260508040303 56 67 0.0 0.0 0.00 0.64 0.00 92 1014.3
20260508034803 57 67 0.0 0.0 0.00 0.64 0.64 92 1014.6
20260508034302 57 67 0.0 0.0 0.00 0.64 0.64 92 1014.5
20260508033802 57 67 0.0 0.0 0.00 0.64 0.64 92 1014.5
20260508033303 57 67 0.0 0.0 0.00 0.64 0.64 92 1014.5
20260508031803 58 67 0.0 0.0 0.00 0.64 0.64 92 1014.2
20260508030303 58 67 0.0 0.0 0.00 0.64 0.64 91 1014.2
20260508024803 58 67 0.0 0.0 0.00 0.65 0.64 91 1014.5
20260508024302 58 67 0.0 0.0 0.00 0.65 0.64 90 1014.4
20260508023803 58 67 0.0 0.0 0.00 0.65 0.64 90 1014.2
20260508023302 58 67 0.0 0.0 0.00 0.65 0.64 90 1014.2
20260508021803 59 67 0.0 0.0 0.00 0.67 0.64 89 1014.0
20260508020802 59 67 0.0 0.0 0.00 0.67 0.64 88 1014.1
20260508020303 60 67 0.0 0.0 0.00 0.67 0.64 89 1013.9
20260508014803 60 67 0.0 0.0 0.00 0.68 0.64 88 1013.8
20260508013803 60 67 0.0 0.0 0.00 0.68 0.64 87 1013.7
20260508013303 61 67 0.0 0.0 0.00 0.68 0.64 86 1013.7
20260508011803 62 67 0.0 0.0 0.00 0.68 0.64 84 1013.5
20260508011303 62 67 0.0 0.0 0.00 0.68 0.64 84 1013.5
20260508010803 62 67 0.0 0.0 0.00 0.68 0.64 84 1013.4
20260508010302 62 67 0.0 0.0 0.00 0.68 0.64 84 1013.3
20260508004802 63 67 0.0 0.0 0.00 0.70 0.64 83 1013.0
20260508004303 63 65 0.0 0.0 0.00 0.70 0.64 82 1013.1
20260508003803 63 65 0.0 0.0 0.00 0.70 0.64 82 1013.0
20260508001803 64 65 0.0 0.0 0.00 0.72 0.64 80 1012.6
20260508001303 64 65 0.0 1.0 0.00 0.72 0.64 79 1012.6
20260508000802 64 66 0.0 2.0 0.00 0.72 0.64 79 1012.6
20260508000305 65 116 0.0 0.0 0.00 0.72 0.64 79 1012.5
20260507234803 66 116 0.0 2.0 0.00 0.72 0.64 78 1012.5
20260507233803 66 167 0.0 1.0 0.00 0.72 0.64 76 1012.4
20260507233303 67 169 1.0 2.0 0.00 0.73 0.64 76 1012.2
20260507231803 67 99 1.0 3.0 0.00 0.74 0.64 76 1012.2
20260507231303 67 202 0.0 1.0 0.00 0.76 0.64 77 1012.1
20260507230803 67 200 1.0 3.0 0.00 0.80 0.64 75 1012.1
20260507230303 67 196 0.0 6.0 0.00 0.81 0.64 75 1012.1
20260507224804 68 234 1.0 3.0 0.00 0.81 0.64 76 1011.9
20260507224303 67 242 0.0 2.0 0.00 0.81 0.64 76 1011.7
20260507223803 68 253 1.0 2.0 0.00 0.81 0.64 75 1011.8
20260507223303 68 178 2.0 7.0 0.00 0.81 0.64 75 1011.7
20260507221803 68 355 0.0 3.0 0.00 0.81 0.64 78 1011.8
20260507221303 68 20 1.0 2.0 0.00 0.81 0.64 78 1011.6
20260507220803 68 145 1.0 3.0 0.00 0.81 0.64 76 1011.6
20260507220303 69 167 1.0 3.0 0.00 0.81 0.64 78 1011.7